DW5247 Lemo FI current weather conditions

sailwx.info

Wind from 225 at 5 knots gusting 12

Air temperature 13.9° C
Dewpoint 10.7° C

Last reported at 2016-Aug-24 07:52 UTC.
Time now 2016-Aug-24 08:34 UTC

Location: N 62°41' E 029°49'.
View on Google Maps.

See reports from other nearby stations

  
Tides and Currents Weather Stations Pressure Air Temp Water Temp Dewpoint Dewpoint Depression Visibility Wind Speed Wind Dir Waves Ship Positions
date/time (UTC)wind fromknots sea level pressurealtimeterstation pressurevisibilityair tempwater tempwave heightnotes
2016-Aug-24 07:52 225 5 gusting 12 13.9
2016-Aug-24 07:47 180 5 gusting 12 13.9
2016-Aug-24 07:42 180 5 gusting 10 14.4
2016-Aug-24 07:37 023 6 gusting 10 14.4
2016-Aug-24 07:32 180 5 gusting 10 14.4
2016-Aug-24 07:27 203 4 gusting 8 14.4
2016-Aug-24 07:22 113 5 gusting 10 14.4
2016-Aug-24 07:17 203 5 gusting 10 14.4
2016-Aug-24 07:12 180 5 gusting 10 14.4
2016-Aug-24 07:07 203 5 gusting 8 14.4
2016-Aug-24 07:02 180 4 gusting 8 13.9
2016-Aug-24 06:57 180 4 gusting 8 13.9
2016-Aug-24 06:52 158 3 gusting 8 13.9
2016-Aug-24 06:47 180 3 gusting 4 13.9
2016-Aug-24 06:42 203 3 gusting 4 13.3
2016-Aug-24 06:37 180 2 gusting 4 13.3
2016-Aug-24 06:32 293 2 gusting 4 13.3
2016-Aug-24 06:27 180 2 gusting 4 13.3
2016-Aug-24 06:22 203 2 gusting 4 13.3
2016-Aug-24 06:17 225 2 gusting 5 13.3
2016-Aug-24 06:12 158 2 gusting 5 13.3
2016-Aug-24 06:07 180 1 gusting 5 13.3
2016-Aug-24 06:02 180 1 gusting 4 13.3
2016-Aug-24 05:57 158 1 gusting 6 13.3
2016-Aug-24 05:52 158 2 gusting 6 13.3
2016-Aug-24 05:47 203 2 gusting 6 13.3
2016-Aug-24 05:42 158 3 gusting 6 13.3
2016-Aug-24 05:37 135 2 gusting 6 13.3
2016-Aug-24 05:32 180 2 gusting 6 13.3
2016-Aug-24 05:27 315 2 gusting 4 13.3
2016-Aug-24 05:22 158 2 gusting 6 13.3
2016-Aug-24 05:17 068 2 gusting 6 13.3
2016-Aug-24 05:12 248 2 gusting 6 13.3
2016-Aug-24 05:07 180 2 gusting 4 13.3
2016-Aug-24 05:02 203 2 gusting 6 13.3
2016-Aug-24 04:57 180 2 gusting 6 13.3
2016-Aug-24 04:52 113 2 gusting 5 13.3
2016-Aug-24 04:47 158 2 gusting 4 13.3
2016-Aug-24 04:42 180 1 gusting 4 13.3
2016-Aug-24 04:37 158 2 gusting 4 13.3
2016-Aug-24 04:32 203 2 gusting 2 13.3
2016-Aug-24 04:27 158 1 gusting 2 13.3
2016-Aug-24 04:22 180 0 gusting 1 13.3
2016-Aug-24 04:17 135 0 gusting 0 13.3
2016-Aug-24 04:12 090 13.3
2016-Aug-24 04:07 113 13.3
2016-Aug-24 04:02 113 0 gusting 1 12.8
2016-Aug-24 03:57 158 0 gusting 1 13.3
2016-Aug-24 03:52 180 12.8
2016-Aug-24 03:47 203 12.8
2016-Aug-24 03:42 158 12.8
2016-Aug-24 03:37 135 12.8
2016-Aug-24 03:32 090 12.8
2016-Aug-24 03:27 090 12.8
2016-Aug-24 03:22 068 12.8
2016-Aug-24 03:17 090 12.8
2016-Aug-24 03:12 113 12.2
2016-Aug-24 03:07 113 12.2
2016-Aug-24 03:02 113 12.8
2016-Aug-24 02:57 135 12.2
2016-Aug-24 02:52 135 0 gusting 1 12.2
2016-Aug-24 02:47 135 0 gusting 1 12.2
2016-Aug-24 02:42 135 12.2
2016-Aug-24 02:37 135 12.2
2016-Aug-24 02:32 158 12.8
2016-Aug-24 02:27 158 12.2
2016-Aug-24 02:22 113 12.2
2016-Aug-24 02:17 090 12.8
2016-Aug-24 02:12 090 12.8
2016-Aug-24 02:07 113 12.8
2016-Aug-24 02:02 068 12.8
2016-Aug-24 01:57 068 12.8
2016-Aug-24 01:52 068 12.8
2016-Aug-24 01:47 090 12.8
2016-Aug-24 01:42 090 13.3
2016-Aug-24 01:37 090 12.8
2016-Aug-24 01:32 113 13.3
2016-Aug-24 01:27 090 13.3
2016-Aug-24 01:22 113 13.3
2016-Aug-24 01:17 113 13.3
2016-Aug-24 01:12 135 13.3
2016-Aug-24 01:07 158 13.3
2016-Aug-24 01:02 135 13.3
2016-Aug-24 00:57 158 13.3
2016-Aug-24 00:52 180 13.3
2016-Aug-24 00:47 158 0 gusting 2 13.3
2016-Aug-24 00:42 180 0 gusting 2 13.3
2016-Aug-24 00:37 158 0 gusting 2 13.3
2016-Aug-24 00:32 158 0 gusting 1 13.3
2016-Aug-24 00:27 158 13.3
2016-Aug-24 00:22 135 13.3
2016-Aug-24 00:17 113 13.3
2016-Aug-24 00:12 135 13.3
2016-Aug-24 00:07 135 13.3
2016-Aug-24 00:02 135 13.3
2016-Aug-23 23:57 158 0 gusting 2 13.3
2016-Aug-23 23:52 180 1 gusting 2 13.3
2016-Aug-23 23:47 158 0 gusting 1 13.3
2016-Aug-23 23:42 158 13.3
2016-Aug-23 23:37 180 13.3
2016-Aug-23 23:32 158 13.3
2016-Aug-23 23:27 158 13.3
2016-Aug-23 23:22 180 13.3
2016-Aug-23 23:17 248 0 gusting 2 13.3
2016-Aug-23 23:12 180 0 gusting 2 13.3
2016-Aug-23 23:07 158 13.3
2016-Aug-23 23:02 180 13.3
2016-Aug-23 22:57 180 13.3
2016-Aug-23 22:52 180 13.3
2016-Aug-23 22:47 180 13.3
2016-Aug-23 22:42 158 13.3
2016-Aug-23 22:37 135 13.3
2016-Aug-23 22:32 225 13.3
2016-Aug-23 22:27 158 13.3
2016-Aug-23 22:22 158 13.3
2016-Aug-23 22:17 158 13.3
2016-Aug-23 22:12 158 13.3
2016-Aug-23 22:07 180 13.3
2016-Aug-23 22:02 180 13.3
2016-Aug-23 21:57 158 13.3
2016-Aug-23 21:52 135 13.3
2016-Aug-23 21:47 135 13.3
2016-Aug-23 21:42 158 13.9
2016-Aug-23 21:37 158 13.9
2016-Aug-23 21:32 180 13.9
2016-Aug-23 21:27 180 13.9
2016-Aug-23 21:22 180 13.9
2016-Aug-23 21:17 180 13.9
2016-Aug-23 21:12 225 14.4
2016-Aug-23 21:07 180 14.4
2016-Aug-23 20:57 180 14.4
2016-Aug-23 20:52 180 14.4
2016-Aug-23 20:47 225 14.4
2016-Aug-23 20:42 203 15.0
2016-Aug-23 20:37 180 15.0
2016-Aug-23 20:32 203 15.0
2016-Aug-23 20:27 158 15.0
2016-Aug-23 20:22 225 15.0
2016-Aug-23 20:17 180 15.6
2016-Aug-23 20:12 180 15.6
2016-Aug-23 20:07 180 15.6
2016-Aug-23 20:02 158 15.6
2016-Aug-23 19:57 180 15.6
2016-Aug-23 19:52 158 16.1
2016-Aug-23 19:47 158 16.1
2016-Aug-23 19:42 203 16.1
2016-Aug-23 19:37 203 16.1
2016-Aug-23 19:27 158 16.7
2016-Aug-23 19:22 248 16.7
2016-Aug-23 19:17 225 16.7
2016-Aug-23 19:12 270 16.7
2016-Aug-23 19:07 180 16.7
2016-Aug-23 19:02 225 16.7
2016-Aug-23 18:57 225 16.7
2016-Aug-23 18:52 203 0 gusting 1 16.7
2016-Aug-23 18:47 180 16.7
2016-Aug-23 18:42 180 16.7
2016-Aug-23 18:37 180 16.7
2016-Aug-23 18:32 113 17.2
2016-Aug-23 18:27 090 17.2
2016-Aug-23 18:22 135 17.2
2016-Aug-23 18:17 135 17.2
2016-Aug-23 18:12 135 17.2
2016-Aug-23 18:07 135 17.2
2016-Aug-23 18:02 113 17.8
2016-Aug-23 17:57 135 17.8
2016-Aug-23 17:52 135 17.8
2016-Aug-23 17:47 045 17.8
2016-Aug-23 17:42 068 17.8
2016-Aug-23 17:37 068 17.8
2016-Aug-23 17:32 068 17.8
2016-Aug-23 17:27 068 17.8
2016-Aug-23 17:22 068 17.8
2016-Aug-23 17:17 068 17.8
2016-Aug-23 17:12 068 17.8
2016-Aug-23 17:07 090 18.3
2016-Aug-23 17:02 158 18.3
2016-Aug-23 16:57 113 18.3
2016-Aug-23 16:52 113 18.3
2016-Aug-23 16:47 338 18.3
2016-Aug-23 16:42 338 18.3
2016-Aug-23 16:37 045 18.3
2016-Aug-23 16:32 090 18.3
2016-Aug-23 16:27 068 18.3
2016-Aug-23 16:22 068 18.3
2016-Aug-23 16:17 090 18.3
2016-Aug-23 16:12 068 18.9
2016-Aug-23 16:07 068 18.9
2016-Aug-23 16:02 090 18.9
2016-Aug-23 15:57 045 0 gusting 3 18.9
2016-Aug-23 15:52 045 0 gusting 2 18.9
2016-Aug-23 15:47 090 0 gusting 2 18.9
2016-Aug-23 15:42 045 0 gusting 2 18.9
2016-Aug-23 15:37 068 18.9
2016-Aug-23 15:32 068 18.9
2016-Aug-23 15:27 090 0 gusting 1 18.9
2016-Aug-23 15:22 068 0 gusting 2 18.9
2016-Aug-23 15:17 068 0 gusting 3 18.9
2016-Aug-23 15:12 068 0 gusting 3 18.9
2016-Aug-23 15:07 090 0 gusting 2 18.9
2016-Aug-23 15:02 113 0 gusting 2 18.9
2016-Aug-23 14:57 068 1 gusting 3 18.9
2016-Aug-23 14:52 135 1 gusting 3 18.9
2016-Aug-23 14:47 045 1 gusting 3 18.9
2016-Aug-23 14:42 090 1 gusting 2 18.3
2016-Aug-23 14:37 068 0 gusting 2 18.3
2016-Aug-23 14:32 113 0 gusting 2 18.3
2016-Aug-23 14:27 068 0 gusting 2 18.3
2016-Aug-23 14:22 068 18.3
2016-Aug-23 14:17 045 18.3
2016-Aug-23 14:12 045 18.3
2016-Aug-23 14:07 113 18.3
2016-Aug-23 14:02 068 18.3
2016-Aug-23 13:57 068 18.3
2016-Aug-23 13:52 045 0 gusting 2 18.3
2016-Aug-23 13:47 113 0 gusting 3 18.3
2016-Aug-23 13:42 068 0 gusting 4 18.3
2016-Aug-23 13:37 068 1 gusting 4 18.3
2016-Aug-23 13:32 068 1 gusting 4 18.3
2016-Aug-23 13:27 068 0 gusting 3 18.3
2016-Aug-23 13:22 045 0 gusting 2 18.3
2016-Aug-23 13:17 068 1 gusting 2 18.3
2016-Aug-23 13:12 338 1 gusting 3 18.3
2016-Aug-23 13:07 045 0 gusting 3 18.3
2016-Aug-23 13:02 068 0 gusting 3 18.3
2016-Aug-23 12:57 068 0 gusting 2 18.9
2016-Aug-23 12:52 023 0 gusting 2 18.9
2016-Aug-23 12:47 068 0 gusting 2 18.9
2016-Aug-23 12:42 068 0 gusting 1 18.9
2016-Aug-23 12:37 023 0 gusting 1 18.9
2016-Aug-23 12:32 068 0 gusting 2 18.9
2016-Aug-23 12:27 090 0 gusting 2 18.9
2016-Aug-23 12:22 068 0 gusting 3 18.9
2016-Aug-23 12:17 18.9
2016-Aug-23 12:12 180 0 gusting 3 18.3
2016-Aug-23 12:07 045 0 gusting 2 18.3
2016-Aug-23 12:02 068 0 gusting 2 18.3
2016-Aug-23 11:57 068 1 gusting 2 18.3
2016-Aug-23 11:52 045 0 gusting 2 18.3
2016-Aug-23 11:47 068 0 gusting 2 18.3
2016-Aug-23 11:42 135 0 gusting 2 18.3
2016-Aug-23 11:37 023 0 gusting 2 18.3
2016-Aug-23 11:32 023 0 gusting 2 18.3
2016-Aug-23 11:27 113 18.3
2016-Aug-23 11:22 045 18.3
2016-Aug-23 11:17 090 0 gusting 3 18.3
2016-Aug-23 11:12 090 0 gusting 3 17.8
2016-Aug-23 11:07 068 0 gusting 3 17.8
2016-Aug-23 11:02 045 0 gusting 2 17.8
2016-Aug-23 10:57 068 0 gusting 2 17.8
2016-Aug-23 10:52 068 0 gusting 3 17.8
2016-Aug-23 10:47 023 0 gusting 3 17.8
2016-Aug-23 10:42 113 1 gusting 3 17.8
2016-Aug-23 10:37 068 0 gusting 1 17.8
2016-Aug-23 10:32 023 17.8
2016-Aug-23 10:27 045 17.8
2016-Aug-23 10:22 270 0 gusting 2 17.8
2016-Aug-23 10:17 068 0 gusting 3 17.8
2016-Aug-23 10:12 090 0 gusting 3 17.8
2016-Aug-23 10:07 023 0 gusting 2 17.8
2016-Aug-23 10:02 068 0 gusting 2 17.8
2016-Aug-23 09:57 068 17.8
2016-Aug-23 09:52 045 17.8
2016-Aug-23 09:47 068 17.8
2016-Aug-23 09:42 113 0 gusting 3 17.8
2016-Aug-23 09:37 068 0 gusting 3 17.8
2016-Aug-23 09:32 068 0 gusting 3 17.8
2016-Aug-23 09:27 023 0 gusting 1 17.8
2016-Aug-23 09:22 090 17.8
2016-Aug-23 09:17 045 17.8
2016-Aug-23 09:12 248 17.8
2016-Aug-23 09:07 248 17.8
2016-Aug-23 09:02 315 17.8
2016-Aug-23 08:57 045 17.8
2016-Aug-23 08:52 090 17.8
2016-Aug-23 08:47 045 17.8
2016-Aug-23 08:42 113 17.8
2016-Aug-23 08:37 113 17.8
2016-Aug-23 08:32 045 17.8
2016-Aug-23 08:27 068 0 gusting 2 17.8
2016-Aug-23 08:22 023 0 gusting 2 17.8
2016-Aug-23 08:17 180 0 gusting 0 17.8
2016-Aug-23 08:12 045 17.8
2016-Aug-23 08:07 045 17.8
2016-Aug-23 08:02 113 17.8
2016-Aug-23 07:57 068 0 gusting 4 17.2
2016-Aug-23 07:52 068 0 gusting 4 17.8
2016-Aug-23 07:47 270 0 gusting 4 17.8
2016-Aug-23 07:42 180 0 gusting 4 17.2
2016-Aug-23 07:37 158 0 gusting 3 17.2
2016-Aug-23 07:32 090 17.2
2016-Aug-23 07:27 023 0 gusting 3 17.2
2016-Aug-23 07:22 135 0 gusting 3 17.2
2016-Aug-23 07:17 158 0 gusting 3 17.2
2016-Aug-23 07:12 338 0 gusting 3 17.2
2016-Aug-23 07:07 135 0 gusting 2 17.2
2016-Aug-23 07:02 158 17.2
2016-Aug-23 06:57 135 17.2
2016-Aug-23 06:52 16.7
2016-Aug-23 06:47 158 16.7
2016-Aug-23 06:42 225 0 gusting 3 16.7
2016-Aug-23 06:37 090 0 gusting 3 16.7
2016-Aug-23 06:32 113 1 gusting 3 16.7
2016-Aug-23 06:27 180 0 gusting 3 16.7
2016-Aug-23 06:22 135 1 gusting 3 16.7
2016-Aug-23 06:17 180 1 gusting 3 16.7
2016-Aug-23 06:12 180 1 gusting 3 16.7
2016-Aug-23 06:07 180 1 gusting 3 16.7
2016-Aug-23 06:02 135 0 gusting 3 16.7
2016-Aug-23 05:57 293 0 gusting 2 16.7
2016-Aug-23 05:52 158 0 gusting 1 16.7
2016-Aug-23 05:47 113 1 gusting 3 16.7
2016-Aug-23 05:42 090 1 gusting 3 16.7
2016-Aug-23 05:37 270 1 gusting 4 16.7
2016-Aug-23 05:32 090 1 gusting 5 16.7
2016-Aug-23 05:27 090 2 gusting 5 16.7
2016-Aug-23 05:22 180 2 gusting 4 16.7
2016-Aug-23 05:17 158 2 gusting 4 16.7
2016-Aug-23 05:12 158 2 gusting 4 16.7
2016-Aug-23 05:07 293 2 gusting 4 16.7
2016-Aug-23 05:02 135 1 gusting 4 16.7
2016-Aug-23 04:57 135 1 gusting 2 16.7
2016-Aug-23 04:52 135 1 gusting 4 16.7
2016-Aug-23 04:47 135 1 gusting 4 16.7
2016-Aug-23 04:42 113 1 gusting 4 16.7
2016-Aug-23 04:37 135 0 gusting 3 16.7
2016-Aug-23 04:32 090 0 gusting 5 16.7
2016-Aug-23 04:27 113 1 gusting 5 16.7
2016-Aug-23 04:22 158 1 gusting 5 16.7
2016-Aug-23 04:17 158 1 gusting 5 16.7
2016-Aug-23 04:12 135 2 gusting 5 16.7
2016-Aug-23 04:07 225 1 gusting 3 16.7
2016-Aug-23 04:02 158 0 gusting 2 16.7
2016-Aug-23 03:57 158 0 gusting 2 17.2
2016-Aug-23 03:52 180 0 gusting 2 16.7
2016-Aug-23 03:47 113 0 gusting 2 16.7
2016-Aug-23 03:42 068 17.2
2016-Aug-23 03:37 068 16.7
2016-Aug-23 03:32 090 17.2
2016-Aug-23 03:27 045 17.2
2016-Aug-23 03:22 068 17.2
2016-Aug-23 03:17 135 17.2
2016-Aug-23 03:12 090 17.2
2016-Aug-23 03:07 090 17.2
2016-Aug-23 03:02 090 17.2
2016-Aug-23 02:57 090 17.2
2016-Aug-23 02:52 113 17.2
2016-Aug-23 02:47 090 17.2
2016-Aug-23 02:42 068 17.2
2016-Aug-23 02:37 068 17.2
2016-Aug-23 02:32 068 17.2
2016-Aug-23 02:27 090 17.2
2016-Aug-23 02:22 068 17.2
2016-Aug-23 02:17 090 17.2
2016-Aug-23 02:12 225 17.2
2016-Aug-23 02:07 113 17.2
2016-Aug-23 02:02 068 17.2
2016-Aug-23 01:57 068 17.2
2016-Aug-23 01:52 068 17.2
2016-Aug-23 01:47 068 17.2
2016-Aug-23 01:42 090 17.2
2016-Aug-23 01:37 338 17.2
2016-Aug-23 01:32 090 17.2
2016-Aug-23 01:27 023 17.8
2016-Aug-23 01:22 068 17.2
2016-Aug-23 01:17 135 17.2
2016-Aug-23 01:12 045 17.8
2016-Aug-23 01:07 068 17.8
2016-Aug-23 01:02 090 17.8
2016-Aug-23 00:57 090 17.8
2016-Aug-23 00:52 135 17.8
2016-Aug-23 00:47 113 17.8
2016-Aug-23 00:42 113 17.8
2016-Aug-23 00:37 068 17.8
2016-Aug-23 00:32 045 17.8
2016-Aug-23 00:27 068 17.8
2016-Aug-23 00:22 068 17.8
2016-Aug-23 00:17 023 17.8
2016-Aug-23 00:12 135 17.8
2016-Aug-23 00:07 090 17.8
2016-Aug-23 00:02 045 17.8
2016-Aug-22 23:57 068 17.8
2016-Aug-22 23:52 068 17.8
2016-Aug-22 23:47 113 0 gusting 1 17.8
2016-Aug-22 23:42 068 0 17.8
2016-Aug-22 23:37 090 17.8
2016-Aug-22 23:32 158 17.8
2016-Aug-22 23:27 068 0 gusting 3 17.8
2016-Aug-22 23:22 113 1 gusting 1 17.8
2016-Aug-22 23:17 135 0 gusting 2 17.8
2016-Aug-22 23:12 090 0 gusting 2 17.8
2016-Aug-22 23:07 068 0 gusting 3 17.8
2016-Aug-22 23:02 068 1 gusting 3 17.8
2016-Aug-22 22:57 045 1 gusting 3 17.8
2016-Aug-22 22:52 068 1 gusting 2 17.8
2016-Aug-22 22:47 045 1 gusting 2 17.8
2016-Aug-22 22:42 068 0 gusting 3 17.8
2016-Aug-22 22:37 045 1 gusting 3 17.8
2016-Aug-22 22:32 090 1 gusting 3 17.8
2016-Aug-22 22:27 045 0 gusting 2 17.8
2016-Aug-22 22:22 045 0 gusting 2 17.8
2016-Aug-22 22:17 090 17.8
2016-Aug-22 22:12 068 0 gusting 1 17.8
2016-Aug-22 22:07 113 17.8
2016-Aug-22 22:02 17.8
2016-Aug-22 21:57 068 17.8
2016-Aug-22 21:52 045 0 gusting 2 17.8
2016-Aug-22 21:47 068 0 gusting 2 17.8
2016-Aug-22 21:42 068 17.8
2016-Aug-22 21:37 090 0 gusting 1 17.8
2016-Aug-22 21:32 068 0 gusting 1 17.8
2016-Aug-22 21:27 045 0 gusting 1 18.3
2016-Aug-22 21:22 113 0 18.3
2016-Aug-22 21:17 068 17.8
2016-Aug-22 21:12 113 18.3
2016-Aug-22 21:07 113 18.3
2016-Aug-22 20:57 068 18.3
2016-Aug-22 20:52 045 18.3
2016-Aug-22 20:47 068 18.3
2016-Aug-22 20:42 068 18.3
2016-Aug-22 20:37 068 18.9
2016-Aug-22 20:32 090 18.9
2016-Aug-22 20:27 090 18.9
2016-Aug-22 20:22 113 18.9
2016-Aug-22 20:17 090 18.9
2016-Aug-22 20:12 113 18.9
2016-Aug-22 20:07 068 18.9
2016-Aug-22 20:02 113 19.4
2016-Aug-22 19:57 113 19.4
2016-Aug-22 19:52 068 19.4
2016-Aug-22 19:47 068 19.4
2016-Aug-22 19:42 068 19.4
2016-Aug-22 19:37 090 19.4
2016-Aug-22 19:32 068 1 gusting 4 20.0
2016-Aug-22 19:27 113 1 gusting 4 20.0
2016-Aug-22 19:22 135 1 gusting 3 20.0
2016-Aug-22 19:17 113 1 gusting 3 20.0
2016-Aug-22 19:12 068 1 gusting 4 20.6
2016-Aug-22 19:07 068 1 gusting 4 20.0
2016-Aug-22 19:02 068 1 gusting 4 20.0
2016-Aug-22 18:57 068 2 gusting 2 20.0
2016-Aug-22 18:52 045 1 gusting 2 20.6
2016-Aug-22 18:47 068 1 gusting 2 20.6
2016-Aug-22 18:42 023 2 gusting 3 20.6
2016-Aug-22 18:37 068 2 gusting 3 20.6
2016-Aug-22 18:32 068 2 gusting 3 20.6
2016-Aug-22 18:27 045 2 gusting 4 20.6
2016-Aug-22 18:22 113 2 gusting 4 20.6
2016-Aug-22 18:17 068 2 gusting 4 20.6
2016-Aug-22 18:12 068 1 gusting 2 20.6
2016-Aug-22 18:07 045 1 gusting 8 20.6
2016-Aug-22 18:02 068 2 gusting 8 20.6
2016-Aug-22 17:57 090 2 gusting 8 20.6
2016-Aug-22 17:52 045 3 gusting 5 20.6
2016-Aug-22 17:47 090 2 gusting 8 20.6
2016-Aug-22 17:42 068 3 gusting 8 20.6
2016-Aug-22 17:37 090 3 gusting 8 20.6
2016-Aug-22 17:32 20.6
2016-Aug-22 17:27 068 2 gusting 4 20.6
2016-Aug-22 17:22 023 2 gusting 4 20.6
2016-Aug-22 17:17 045 3 gusting 4 20.6
2016-Aug-22 17:12 20.6
2016-Aug-22 17:07 068 3 gusting 6 20.6
2016-Aug-22 17:02 045 2 gusting 6 20.6
2016-Aug-22 16:57 023 2 gusting 6 20.6
2016-Aug-22 16:52 023 3 gusting 6 20.6
2016-Aug-22 16:47 068 3 gusting 6 21.1
2016-Aug-22 16:42 023 3 gusting 6 21.1
2016-Aug-22 16:37 045 3 gusting 6 21.1
2016-Aug-22 16:32 045 4 gusting 6 21.1
2016-Aug-22 16:27 023 4 gusting 4 21.1
2016-Aug-22 16:22 068 3 gusting 9 21.1
2016-Aug-22 16:17 023 3 gusting 9 21.1
2016-Aug-22 16:12 023 3 gusting 9 21.1
2016-Aug-22 16:07 023 3 gusting 6 21.1
2016-Aug-22 16:02 338 2 gusting 5 21.1
2016-Aug-22 15:57 068 3 gusting 6 21.1
2016-Aug-22 15:52 023 3 gusting 8 21.1
2016-Aug-22 15:47 023 3 gusting 8 21.1
2016-Aug-22 15:42 023 3 gusting 8 21.7
2016-Aug-22 15:37 023 3 gusting 5 21.7
2016-Aug-22 15:32 045 2 gusting 4 21.7
2016-Aug-22 15:27 023 2 gusting 10 21.7
2016-Aug-22 15:22 045 3 gusting 10 21.7
2016-Aug-22 15:17 023 3 gusting 10 21.7
2016-Aug-22 15:12 21.7
2016-Aug-22 15:07 023 2 gusting 5 21.7
2016-Aug-22 15:02 068 2 gusting 7 21.7
2016-Aug-22 14:57 023 2 gusting 9 21.7
2016-Aug-22 14:52 045 2 gusting 9 21.7
2016-Aug-22 14:47 338 3 gusting 8 21.7
2016-Aug-22 14:42 045 2 gusting 7 22.2
2016-Aug-22 14:37 023 2 gusting 7 22.2
2016-Aug-22 14:32 023 3 gusting 7 22.2
2016-Aug-22 14:27 068 3 gusting 6 22.2
2016-Aug-22 14:22 045 2 gusting 6 22.2
2016-Aug-22 14:17 068 2 gusting 5 22.2
2016-Aug-22 14:12 090 2 gusting 5 22.2
2016-Aug-22 14:07 22.2
2016-Aug-22 14:02 023 1 gusting 1 22.2
2016-Aug-22 13:57 068 1 gusting 3 22.2
2016-Aug-22 13:52 023 1 gusting 5 22.2
2016-Aug-22 13:47 045 1 gusting 5 22.8
2016-Aug-22 13:42 045 0 gusting 5 22.8
2016-Aug-22 13:37 045 0 gusting 5 22.8
2016-Aug-22 13:32 023 1 gusting 5 22.8
2016-Aug-22 13:27 068 1 gusting 5 22.8
2016-Aug-22 13:22 068 1 gusting 6 22.8
2016-Aug-22 13:17 045 2 gusting 6 22.8
2016-Aug-22 13:12 068 2 gusting 6 23.3
2016-Aug-22 13:07 090 2 gusting 5 23.3
2016-Aug-22 13:02 045 2 gusting 5 23.3
2016-Aug-22 12:57 338 2 gusting 5 23.3
2016-Aug-22 12:52 090 2 gusting 5 23.3
2016-Aug-22 12:47 023 2 gusting 3 23.3
2016-Aug-22 12:42 068 2 gusting 4 23.3
2016-Aug-22 12:37 045 2 gusting 5 23.3
2016-Aug-22 12:32 090 2 gusting 5 23.3
2016-Aug-22 12:27 023 3 gusting 5 23.9
2016-Aug-22 12:22 068 2 gusting 7 23.9
2016-Aug-22 12:17 023 3 gusting 7 23.9
2016-Aug-22 12:12 045 4 gusting 7 23.9
2016-Aug-22 12:07 113 4 gusting 7 23.9
2016-Aug-22 12:02 023 4 gusting 8 24.4
2016-Aug-22 11:57 045 4 gusting 8 23.9
2016-Aug-22 11:52 23.9
2016-Aug-22 11:47 023 3 gusting 7 23.9
2016-Aug-22 11:42 045 3 gusting 7 23.9
2016-Aug-22 11:37 23.9
2016-Aug-22 11:32 023 3 gusting 6 23.9
2016-Aug-22 11:27 023 4 gusting 6 23.9
2016-Aug-22 11:22 24.4
2016-Aug-22 11:17 068 4 gusting 7 24.4
2016-Aug-22 11:12 045 3 gusting 7 24.4
2016-Aug-22 11:07 045 3 gusting 12 24.4
2016-Aug-22 11:02 068 4 gusting 12 24.4
2016-Aug-22 10:57 338 4 gusting 7 24.4
2016-Aug-22 10:52 023 4 gusting 7 24.4
2016-Aug-22 10:47 068 3 gusting 11 24.4
2016-Aug-22 10:42 068 4 gusting 11 24.4
2016-Aug-22 10:37 068 3 gusting 11 24.4
2016-Aug-22 10:32 24.4
2016-Aug-22 10:27 113 4 gusting 8 24.4
2016-Aug-22 10:22 045 4 gusting 8 24.4
2016-Aug-22 10:17 023 4 gusting 6 24.4
2016-Aug-22 10:12 045 3 gusting 5 24.4
2016-Aug-22 10:07 023 3 gusting 6 24.4
2016-Aug-22 10:02 045 4 gusting 6 24.4
2016-Aug-22 09:57 023 4 gusting 6 24.4
2016-Aug-22 09:52 045 4 gusting 6 24.4
2016-Aug-22 09:47 045 4 gusting 6 24.4
2016-Aug-22 09:42 023 3 gusting 6 24.4
2016-Aug-22 09:37 023 3 gusting 7 24.4
2016-Aug-22 09:32 090 4 gusting 7 24.4
2016-Aug-22 09:27 023 5 gusting 7 24.4
2016-Aug-22 09:22 068 4 gusting 7 24.4
2016-Aug-22 09:17 068 3 gusting 6 23.9
2016-Aug-22 09:12 023 4 gusting 7 23.9
2016-Aug-22 09:07 023 4 gusting 7 23.9
2016-Aug-22 09:02 045 4 gusting 11 23.9
2016-Aug-22 08:57 135 4 gusting 11 23.3
2016-Aug-22 08:52 068 4 gusting 11 23.3
2016-Aug-22 08:47 113 4 gusting 6 23.3
2016-Aug-22 08:42 090 3 gusting 4 23.3
2016-Aug-22 08:37 068 2 gusting 6 23.3
2016-Aug-22 08:32 090 2 gusting 6 23.3
2016-Aug-22 08:27 068 2 gusting 6 23.3
2016-Aug-22 08:22 113 2 gusting 6 22.8
2016-Aug-22 08:17 045 2 gusting 5 22.8
2016-Aug-22 08:12 068 2 gusting 6 22.8
2016-Aug-22 08:07 023 2 gusting 6 22.8
2016-Aug-22 08:02 068 3 gusting 6 22.2